Regional Weather Roundup
Issued by NWS

Home | Current Version | Previous Version | Text Only | Print | Product List | Glossary Off
Versions: 1 2 3 4 5 6 7 8 9 10 11 12 13 14 15 16 17 18 19 20 21 22 23 24 25 26 27 28 29 30 31 32 33 34 35 36 37 38 39 40 41 42 43 44 45 46 47 48 49 50

000
ASUS43 KLOT 260900
RWRIL

ILLINOIS REGIONAL WEATHER ROUNDUP
NATIONAL WEATHER SERVICE CHICAGO/ROMEOVILLE IL
300 AM CST MON JAN 26 2015

NOTE: "FAIR" INDICATES FEW OR NO CLOUDS BELOW 12,000 FEET WITH NO
SIGNIFICANT WEATHER AND/OR OBSTRUCTIONS TO VISIBILITY.

* THESE STATIONS ARE NOT UNDER NWS QUALITY CONTROL. THEY ALSO MAY NOT
  REPORT WEATHER SUCH AS PRECIPITATION OR FOG.

ILZ001-002-007-009-015-016-024-261000-
NORTHWEST ILLINOIS

CITY           SKY/WX    TMP DP  RH WIND       PRES   REMARKS
MOLINE         CLEAR     13  10  88 W5        30.03F WCI   5
STERLING*      PTCLDY    16  10  79 N3        30.01F
$$

ILZ003-004-008-010-011-017-018-261000-
NORTH CENTRAL ILLINOIS

CITY           SKY/WX    TMP DP  RH WIND       PRES   REMARKS
ROCKFORD       CLEAR     14   9  80 N6        30.02F WCI   5
$$

ILZ005-006-012>014-019>023-261000-
NORTHEAST ILLINOIS

CITY           SKY/WX    TMP DP  RH WIND       PRES   REMARKS
CHICAGO-OHARE  MOCLDY    23  15  71 E9        29.97F WCI  13
CHICAGO-MIDWAY MOCLDY    25  16  68 NE6       29.98F WCI  18
AURORA         PTCLDY    16  11  80 NW8       30.00S WCI   5
WAUKEGAN       MOCLDY    20  13  74 NE6       29.97F WCI  12
DUPAGE AIRPORT CLOUDY    16  12  84 NW6       29.98F WCI   7
WHEELING       CLOUDY    23  15  71 E6        29.99F WCI  16
NORTHERLY ISL    N/A     23  15  71 NE6         N/A  WCI  16
$$

LMZ740>746-261000-
SOUTHERN LAKE MICHIGAN

STATION/POSITION SKY/WX   TEMP    WIND        PRES    VSBY  WAVE
                          AIR SEA DIR/SP/G                  HT/PER
                          (F)     (DEG/KT/KT) (MB)    (MI)  (FT/S)
WAUKEGAN HARBOR            24      70/  7/  9   N/A
HARRISON CRIB              23      50/  8/ 11   N/A
BURNHAM HARBOR             23      30/  4/ 14   N/A
CALUMET HARBOR             23      30/  8/ 11   N/A
MICHIGAN CITY              18      50/  9/ 13   N/A
$$

ILZ025>027-034>036-040-047-049-050-058-095>099-261000-
WEST-CENTRAL ILLINOIS

CITY           SKY/WX    TMP DP  RH WIND       PRES   REMARKS
QUINCY         CLOUDY    26  21  81 NW7       30.05F WCI  18
$$

ILZ028>032-037-038-041>044-048-051>054-059>061-261000-
CENTRAL ILLINOIS

CITY           SKY/WX    TMP DP  RH WIND       PRES   REMARKS
DECATUR        CLOUDY    25  24  96 NW13      29.99S WCI  14
PEORIA         MOCLDY    21  14  74 VRB5      30.02F WCI  15
SPRINGFIELD    MOCLDY    24  17  74 N9        30.03S WCI  14
TAYLORVILLE    NOT AVBL
$$

ILZ033-039-045-046-055>057-062-063-261000-
EAST-CENTRAL ILLINOIS

CITY           SKY/WX    TMP DP  RH WIND       PRES   REMARKS
CHAMPAIGN      CLOUDY    28  22  78 N13       29.96F WCI  17
MATTOON        CLOUDY    27  22  81 N13       29.96R WCI  16
$$

ILZ079-100>102-261000-
SOUTHWEST ILLINOIS

CITY           SKY/WX    TMP DP  RH WIND       PRES   REMARKS
BELLEVILLE     PTCLDY    27  23  84 NW12      30.03R WCI  17
CAHOKIA*       PTCLDY    29  22  75 NW14      30.05S WCI  18
SPARTA*        CLOUDY    28  25  86 NW7       30.02R WCI  21
$$

ILZ064>066-069>071-074>076-080>082-084>086-088>090-092>094-261000-
SOUTH-CENTRAL ILLINOIS

CITY           SKY/WX    TMP DP  RH WIND       PRES   REMARKS
CARBONDALE     CLOUDY    31  24  75 NW16G28   30.01R WCI  20
MT. VERNON     CLOUDY    30  23  74 NW6       30.00R WCI  24
$$

ILZ067-068-072-073-078-083-087-091-261000-
SOUTHEAST ILLINOIS

CITY           SKY/WX    TMP DP  RH WIND       PRES   REMARKS
LAWRENCEVILLE  CLOUDY    29  24  82 N14       29.95R WCI  18
$$

ABBREVIATIONS USED IN REMARKS
   TC - TEMPERATURE IN CELSIUS
  WCI - WIND CHILL INDEX
   HX - HEAT INDEX
  VSB - VISIBILITY
$$



USA.gov is the U.S. government's official web portal to all federal, state and local government web resources and services.